Location: Apalco
(33.3585°N, 93.4602°W)
Time: 15:39:42
(UTC+00:00)

Envisat - Pass Details

Date: 28 September 2021
Orbit: 764 x 766 km, 98.2° (Epoch: 18 October)

Event Time Altitude Azimuth Distance (km) Brightness Sun altitude
Rises 10:29:46 0° 26° (NNE) 3,233 6.8 -20.9°
Reaches altitude 10° 10:32:25 10° 39° (NE) 2,303 6.2 -20.3°
Maximum altitude 10:36:40 27° 96° (E) 1,447 5.2 -19.5°
Drops below altitude 10° 10:40:53 10° 153° (SSE) 2,291 5.7 -18.6°
Sets 10:43:31 0° 166° (SSE) 3,212 6.3 -18.0°
